Regional Weather Roundup
Issued by NWS

Home | Current Version | Previous Version | Graphics & Text | Print | Product List | Glossary On
Versions: 1 2 3 4 5 6 7 8 9 10 11 12 13 14 15 16 17 18 19 20 21 22 23 24 25 26 27 28
000
ASUS45 KCYS 171710
RWRWY

WYOMING REGIONAL WEATHER ROUNDUP
NATIONAL WEATHER SERVICE CHEYENNE WY
1100 AM MDT THU AUG 17 2017

NOTE:  "FAIR" INDICATES FEW OR NO CLOUDS BELOW 12,000 FEET
WITH NO SIGNIFICANT WEATHER AND/OR OBSTRUCTIONS TO VISIBILITY.

WYZ001-171800-
YELLOWSTONE NATIONAL PARK

CITY           SKY/WX    TMP DP  RH WIND       PRES   REMARKS
LK YELLOWSTONE   N/A     61  37  41 SE5       30.31S
W YELLOWSTONE  NOT AVBL

$$
WYZ002>013-054>058-071-098>099-171800-
NORTHERN WYOMING

CITY           SKY/WX    TMP DP  RH WIND       PRES   REMARKS
JACKSON        SUNNY     68  39  34 S7        30.24S
CODY           FAIR      71  44  37 NE6       30.12R
GREYBULL       FAIR      69  41  36 SE5       30.04S
WORLAND        FAIR      74  48  39 VRB3      30.05R
SHERIDAN       FAIR      73  40  30 NW14      30.04R
BUFFALO        FAIR     N/A N/A N/A MISG      30.07R
GILLETTE       NOT AVBL
HULETT         FAIR      77  43  29 SW6       30.02S
NEWCASTLE      FAIR      73  41  31 SE6       30.03F

$$
WYZ014>020-022>026-101>103-171800-
CENTRAL WYOMING

CITY           SKY/WX    TMP DP  RH WIND       PRES   REMARKS
BIG PINEY      FAIR      65  40  39 CALM      30.29F
PINEDALE       FAIR      68  32  26 CALM      30.30F
DUBOIS         FAIR      68  28  22 NW15G22   30.23F
LANDER           N/A    N/A N/A N/A MISG      30.12F
RIVERTON       FAIR      76  34  21 W3        30.13F
CASPER         FAIR      77  42  28 S16G23    30.10F
DOUGLAS        FAIR      79  44  28 NW12      30.08F

$$
WYZ021-027>030-104>119-171800-
SOUTHERN WYOMING

CITY           SKY/WX    TMP DP  RH WIND       PRES   REMARKS
EVANSTON       FAIR      72  37  28 SW13      30.31S
KEMMERER         N/A     70  32  24 W14       30.32S
FORT BRIDGER   FAIR      76  32  19 W15G22    30.32F
ROCK SPRINGS   FAIR      71  37  28 VRB6      30.28S
RAWLINS        FAIR      72  38  29 W15       30.26S
SARATOGA       FAIR      72  36  26 W17G24    30.28F
LARAMIE        FAIR      71  37  28 VRB5      30.26S
CHEYENNE       FAIR      78  37  22 W15       30.18S
TORRINGTON     FAIR      74  47  38 VRB3      30.05S
PINE BLUFFS    FAIR      77  46  33 S7        30.13F

$$




USA.gov is the U.S. government's official web portal to all federal, state and local government web resources and services.